Content
SEND FEEDBACK

Daily
Averages
Monthly
Summary
United States of America

UPI, GUAM


Home > North America > United States > Guam
Elevation: 53 feet     Latitude: 13 34N     Longitude: 144 55E

WEATHER
 
SELECT A DAY
Number of Records: 208,919;   Date Range: 1/1/95 - 7/23/14
 
SHARE

PRINT THIS DATA

[ ← Previous Day ]
WEATHER ALMANAC - MAY 4, 2014
[ Next Day → ]
[ °C ]   °F
Weather ElementAverageHighLow
Temperature83.2 °F87.1 °F (10:54 am)78.8 °F (5:29 am)
Dewpoint76.3 °F78.1 °F (8:54 pm)75 °F (3:54 am)
Humidity80.3 %94 % (5:29 am)67 % (11:54 am)
Barometer29.88 in29.94 in (8:27 pm)29.83 in (2:54 pm)
Wind Speed9.2 mph13.8 mph (4:54 am)
Wind Gust23 mph (4:54 am)
Weather ElementAverage
Visibility9.9 mi
Wind DirectionESE (101.9 °)

Weather ElementTotal
Precipitation0.03 in
Cooling Degree Days18 (Base 65)
Growing Degree Days33 (Base 50)
Averaged from 27 records on May 4, 2014
WEATHER CONDITIONS BREAKOUT
WIND DIRECTION BREAKOUT
WEATHER BY HOUR - MAY 4, 2014
[ °C ]   °F
Local TimeTemperatureDewpointHumidityBarometerVisibilityWind DirectionWind SpeedGust SpeedPrecipitationEventsConditions
1:54 AM81.0 °F75.9 °F85 %29.86 in10.0 miEast (100°)4.6 mphMostly Cloudy
2:54 AM81.0 °F75.9 °F85 %29.85 in10.0 miEast (100°)6.9 mphScattered Clouds
3:54 AM81.0 °F75.0 °F82 %29.85 in10.0 miSE (130°)3.5 mphClear
4:54 AM81.0 °F75.9 °F85 %29.86 in8.0 miESE (120°)13.8 mph23.0 mph0.00 inRainLight Rain
5:29 AM78.8 °F77.0 °F94 %29.87 in10.0 miEast (100°)6.9 mph0.01 inMostly Cloudy
5:54 AM80.1 °F77.0 °F90 %29.85 in10.0 miEast (100°)6.9 mph0.01 inScattered Clouds
6:54 AM81.0 °F75.9 °F85 %29.86 in10.0 miEast (100°)8.1 mphPartly Cloudy
7:25 AM82.4 °F77.0 °F84 %29.89 in10.0 miEast (90°)6.9 mphMostly Cloudy
7:34 AM82.4 °F77.0 °F84 %29.90 in10.0 miEast (90°)9.2 mphScattered Clouds
7:54 AM82.9 °F77.0 °F82 %29.88 in10.0 miEast (100°)11.5 mphScattered Clouds
8:54 AM84.0 °F75.0 °F74 %29.90 in10.0 miESE (110°)12.7 mphScattered Clouds
9:54 AM86.0 °F75.9 °F72 %29.90 in10.0 miESE (110°)12.7 mphScattered Clouds
10:54 AM87.1 °F77.0 °F72 %29.90 in10.0 miEast (80°)11.5 mphMostly Cloudy
11:54 AM87.1 °F75.0 °F67 %29.89 in10.0 miESE (120°)9.2 mphScattered Clouds
12:54 PM87.1 °F75.9 °F69 %29.86 in10.0 miEast (100°)12.7 mphScattered Clouds
1:54 PM87.1 °F75.0 °F67 %29.85 in10.0 miESE (110°)11.5 mph19.6 mphPartly Cloudy
2:54 PM86.0 °F75.0 °F70 %29.83 in10.0 miSE (130°)10.4 mph18.4 mphPartly Cloudy
3:54 PM86.0 °F77.0 °F74 %29.83 in10.0 miESE (120°)11.5 mph19.6 mphScattered Clouds
4:54 PM84.9 °F75.9 °F74 %29.83 in10.0 miESE (110°)10.4 mphScattered Clouds
5:54 PM84.0 °F77.0 °F79 %29.86 in10.0 miESE (110°)10.4 mphPartly Cloudy
6:54 PM82.9 °F77.0 °F82 %29.88 in10.0 miEast (90°)9.2 mph0.00 inClear
7:54 PM82.9 °F77.0 °F82 %29.90 in10.0 miEast (100°)6.9 mphMostly Cloudy
8:27 PM82.4 °F77.0 °F84 %29.94 in10.0 miEast (100°)5.8 mphScattered Clouds
8:54 PM82.0 °F78.1 °F88 %29.92 in10.0 miEast (80°)9.2 mphMostly Cloudy
9:54 PM81.0 °F77.0 °F88 %29.94 in10.0 miEast (80°)9.2 mphMostly Cloudy
10:54 PM82.0 °F77.0 °F85 %29.94 in10.0 miEast (90°)10.4 mph0.01 inPartly Cloudy
11:54 PM81.0 °F75.9 °F85 %29.93 in10.0 miEast (80°)6.9 mphPartly Cloudy
Hourly data recorded from PGUM, located miles away from Upi, Guam







STORIES FROM OUR PARTNERS